STARLINK-32824, 62817

Orbit data source: Space-Track

STARLINK-32824, 62817 is a payload satellite owned by SpaceX/Seattle (US) in LEO that was launched on Fri, 24 Jan 2025 UTC via an FALCON 9 launch vehicle from the Air Force Western Test Range (AFWTR). Payload-class satellites include a variety of spacecraft equipped with specific instruments for various scientific and technological missions. These include communications satellites like Starlink; space stations such as the ISS; scientific satellites like the Hubble; Earth observation satellites from companies like Planet Labs, Umbra, and HawkEye 360; GPS; miniature CubeSats for education and research; and military/defense satellites.

Loading next visibility...
Identifier
62817, 2025-018M
Orbit
LEO
Last TLE update
14 hours ago
Origin
Manufacturer
SpaceX/Seattle
Mission
Operational Commercial Communications
Bus & Motor
STARLINK V2M, Unknown motor
Mass
730 kg wet, ~700 kg dry
Launch date (UTC)
2025-01-24 (6 months ago)
Launch vehicle
FALCON 9
Launch site
Air Force Western Test Range (AFWTR)
Object type
Payload
Rocket body
Debris
Shape & HBR
Box + 2 Pan, 14.5 m
Radar Cross Section
33.884 m², Large (>1 m²)

Expand to show TLE details & history

TLE from 14 hours ago
0 STARLINK-32824
1 62817U 25018M   25198.76839222  .00024838  00000-0  84836-3 0  9991
2 62817  53.1572 320.5898 0001951  23.7219 336.3872 15.30182681 28157
Epoch: 2025-07-17T18:26Z
TLE epoch observation values (Epoch: 2025-07-17T18:26:29.087Z)
Latitude
0.00001°
Longitude
108.13915°
Altitude
474.941 km
Speed
7.63 km/s
True Right ascension
21h 22m 21s
True Declination
0° 00' 00"
Sunlit
Object was in full shadow at epoch
Visualization orbit readout
Latitude
-51.66224°
Longitude
-4.07844°
Altitude
493.898 km
Speed
7.617 km/s
Apparent Right ascension
11h 10m 16s
Apparent Declination
-52° 26' 06"
Sunlit
Object is in daylight
Visualization observer readout
Local Sidereal Time
20:51:21
Azimuth
230.486° WSW
Elevation
-63.243°
Doppler factor
1
Orbital elements
Apogee altitude
476.861 km
Perigee altitude
474.187 km
Semi-major axis
6,853.661 km
Eccentricity
0.0002
Inclination
53.1572°
RAAN
320.5898°
Arg. of periapsis
23.7219°
True anomaly
336.37824°
Mean anomaly
336.3872°
Eccentric anomaly
336.38272°
Mean motion
3.82525 °/min
Orbital period
94.11 mins
BSTAR
0.00084836
Loading maneuver chart data...
Loading SW <> Apogee altitude chart data...
Loading historical data...
Loading historical data...
Loading historical data...
Loading historical data...
Loading historical data...
Loading historical data...
Loading historical data...
|